[TLELIST] Archives

 

[TLELIST] Current TLEs

August 19th 2024 PDT

HST 1 20580U 90037B 24231.50460653 .00012942 00000-0 59583-3 0 9996 2 20580 28.4686 287.3327 0002176 11.3734 348.6908 15.18774127686515 ISS (ZARYA) 1 25544U 98067A 24232.40625104 .00024453 00000-0 42899-3 0 9998 2 25544 51.6412 2.1325 0005118 219.2686 240.0106 15.50392803468358 CXO 1 25867U 99040B 24233.97649026 .00000937 00000-0 00000-0 0 9996 2 25867 42.4946 148.4625 8822359 300.0007 0.9696 0.37803797 14803 ...Continue Reading

[TLELIST] Current TLEs

August 18th 2024 PDT

HST 1 20580U 90037B 24230.51892889 .00013147 00000-0 60583-3 0 9996 2 20580 28.4690 293.9471 0002090 0.4204 359.6391 15.18751371686366 ISS (ZARYA) 1 25544U 98067A 24231.37347245 .00000858 00000-0 22800-4 0 9994 2 25544 51.6402 7.2502 0004503 221.0838 230.1155 15.50322272468196 CXO 1 25867U 99040B 24231.33207010 .00000981 00000-0 00000+0 0 9995 2 25867 42.4432 148.6491 8823807 299.9118 0.8698 0.37803568 25959 ...Continue Reading

[TLELIST] Current TLEs

August 17th 2024 PDT

HST 1 20580U 90037B 24230.25607901 .00011730 00000-0 53976-3 0 9990 2 20580 28.4691 295.7107 0002097 356.4610 3.5967 15.18743872686580 ISS (ZARYA) 1 25544U 98067A 24230.39901051 .00024586 00000-0 43347-3 0 9998 2 25544 51.6409 12.0778 0005421 212.4335 196.5738 15.50247323468047 CXO 1 25867U 99040B 24231.33207010 .00000981 00000-0 00000+0 0 9995 2 25867 42.4432 148.6491 8823807 299.9118 0.8698 0.37803568 25959 ...Continue Reading

[TLELIST] Current TLEs

August 16th 2024 PDT

HST 1 20580U 90037B 24228.87609912 .00012250 00000-0 56461-3 0 9999 2 20580 28.4694 304.9697 0001949 341.1974 18.8546 15.18710268686113 ISS (ZARYA) 1 25544U 98067A 24229.37454672 .00023655 00000-0 41819-3 0 9994 2 25544 51.6409 17.1563 0005411 206.3863 241.5158 15.50193912467884 CXO 1 25867U 99040B 24231.33207010 .00000981 00000-0 00000+0 0 9995 2 25867 42.4432 148.6491 8823807 299.9118 0.8698 0.37803568 25959 ...Continue Reading

[TLELIST] Current TLEs

August 16th 2024 PDT

HST 1 20580U 90037B 24228.87609912 .00012250 00000-0 56461-3 0 9999 2 20580 28.4694 304.9697 0001949 341.1974 18.8546 15.18710268686113 ISS (ZARYA) 1 25544U 98067A 24229.37454672 .00023655 00000-0 41819-3 0 9994 2 25544 51.6409 17.1563 0005411 206.3863 241.5158 15.50193912467884 CXO 1 25867U 99040B 24231.33207010 .00000981 00000-0 00000+0 0 9995 2 25867 42.4432 148.6491 8823807 299.9118 0.8698 0.37803568 25959 ...Continue Reading

[TLELIST] Current TLEs

August 15th 2024 PDT

HST 1 20580U 90037B 24227.56180390 .00012792 00000-0 59056-3 0 9992 2 20580 28.4698 313.7876 0001865 325.3386 34.7085 15.18676239685913 ISS (ZARYA) 1 25544U 98067A 24227.96646383 .00025927 00000-0 45847-3 0 9998 2 25544 51.6416 24.1351 0005594 200.8397 303.9619 15.50130564467663 CXO 1 25867U 99040B 24228.68753001 .00000906 00000-0 00000+0 0 9992 2 25867 42.3795 148.8371 8827115 299.8144 0.7629 0.37804528 25942 ...Continue Reading

[TLELIST] Current TLEs

August 14th 2024 PDT

HST 1 20580U 90037B 24226.57606336 .00016655 00000-0 77191-3 0 9997 2 20580 28.4698 320.4006 0001789 313.2931 46.7513 15.18648161686025 ISS (ZARYA) 1 25544U 98067A 24227.37312917 .00035101 00000-0 61749-3 0 9990 2 25544 51.6414 27.0714 0005352 196.6516 234.9351 15.50116667467577 CXO 1 25867U 99040B 24228.68753001 .00000906 00000-0 00000+0 0 9992 2 25867 42.3795 148.8371 8827115 299.8144 0.7629 0.37804528 25942 ...Continue Reading

[TLELIST] Current TLEs

August 13th 2024 PDT

HST 1 20580U 90037B 24225.65602021 .00023092 00000-0 10739-2 0 9999 2 20580 28.4696 326.5721 0001735 301.1506 58.8917 15.18616974685623 ISS (ZARYA) 1 25544U 98067A 24226.02378591 .00025887 00000-0 45990-3 0 9991 2 25544 51.6416 33.7569 0005523 192.0981 264.8145 15.50000549467368 CXO 1 25867U 99040B 24228.68753001 .00000906 00000-0 00000+0 0 9992 2 25867 42.3795 148.8371 8827115 299.8144 0.7629 0.37804528 25942 ...Continue Reading

[TLELIST] Current TLEs

August 13th 2024 PDT

HST 1 20580U 90037B 24225.65602021 .00023092 00000-0 10739-2 0 9999 2 20580 28.4696 326.5721 0001735 301.1506 58.8917 15.18616974685623 ISS (ZARYA) 1 25544U 98067A 24226.02378591 .00025887 00000-0 45990-3 0 9991 2 25544 51.6416 33.7569 0005523 192.0981 264.8145 15.50000549467368 CXO 1 25867U 99040B 24228.68753001 .00000906 00000-0 00000+0 0 9992 2 25867 42.3795 148.8371 8827115 299.8144 0.7629 0.37804528 25942 ...Continue Reading

[TLELIST] Current TLEs

August 12th 2024 PDT

HST 1 20580U 90037B 24224.73595425 .00015982 00000-0 74197-3 0 9994 2 20580 28.4698 332.7457 0001727 288.9299 71.1107 15.18576051685486 ISS (ZARYA) 1 25544U 98067A 24225.49668471 .00023534 00000-0 41949-3 0 9997 2 25544 51.6416 36.3701 0005647 189.7423 203.9955 15.49962670467280 CXO 1 25867U 99040B 24226.04479016 .00000804 00000-0 00000-0 0 9999 2 25867 42.3363 149.0122 8829759 299.7112 0.9080 0.37809300 14775 ...Continue Reading
  • This mailing list is a public mailing list - anyone may join or leave, at any time.
  • This mailing list is announce-only.

International Space Station (ISS) / Hubble Space Telescope (HST) / Chandra X-Ray Observatory Orbital Data via EMAIL

Privacy Policy:

Private list